Time,TemperatureF,DewpointF,PressureIn,WindDirection,WindDirectionDegrees,WindSpeedMPH,WindSpeedGustMPH,Humidity,HourlyPrecipIn,Conditions,Clouds,dailyrainin,SoftwareType,DateUTC
2013-04-29 00:00:00,57.0,34.0,-100.00,ESE,120,6.0,7.0,42,-99.99,,,-99.99,,2013-04-29 07:00:00,
2013-04-29 00:01:00,60.0,37.0,-100.00,ESE,108,4.0,5.0,42,-99.99,,,-99.99,,2013-04-29 07:01:00,
2013-04-29 00:11:00,60.0,37.0,-100.00,ESE,108,4.0,5.0,42,-99.99,,,-99.99,,2013-04-29 07:11:00,
2013-04-29 00:21:00,60.0,37.0,-100.00,ESE,108,4.0,5.0,42,-99.99,,,-99.99,,2013-04-29 07:21:00,
2013-04-29 00:41:00,57.0,34.0,-100.00,ESE,120,6.0,7.0,42,-99.99,,,-99.99,,2013-04-29 07:41:00,
2013-04-29 00:52:00,57.0,34.0,-100.00,ESE,120,6.0,7.0,42,-99.99,,,-99.99,,2013-04-29 07:52:00,
2013-04-29 03:23:00,54.0,28.0,-100.00,SE,127,6.0,7.0,36,-99.99,,,-99.99,,2013-04-29 10:23:00,
2013-04-29 03:32:00,54.0,28.0,-100.00,ESE,116,8.0,9.0,37,-99.99,,,-99.99,,2013-04-29 10:32:00,
2013-04-29 03:42:00,54.0,28.0,-100.00,ESE,116,8.0,9.0,37,-99.99,,,-99.99,,2013-04-29 10:42:00,
2013-04-29 03:52:00,54.0,28.0,-100.00,SE,126,6.0,8.0,36,-99.99,,,-99.99,,2013-04-29 10:52:00,
2013-04-29 04:02:00,53.0,27.0,-100.00,SE,128,6.0,7.0,37,-99.99,,,-99.99,,2013-04-29 11:02:00,
2013-04-29 04:10:00,52.0,28.0,-100.00,SE,137,7.0,9.0,39,-99.99,,,-99.99,,2013-04-29 11:10:00,
2013-04-29 04:12:00,53.0,28.0,-100.00,SE,135,7.0,8.0,38,-99.99,,,-99.99,,2013-04-29 11:12:00,
2013-04-29 04:21:00,54.0,28.0,-100.00,ESE,122,6.0,7.0,37,-99.99,,,-99.99,,2013-04-29 11:21:00,
2013-04-29 04:31:00,55.0,28.0,-100.00,ESE,122,6.0,7.0,35,-99.99,,,-99.99,,2013-04-29 11:31:00,
2013-04-29 04:41:00,52.0,28.0,-100.00,SE,137,7.0,9.0,39,-99.99,,,-99.99,,2013-04-29 11:41:00,
2013-04-29 04:52:00,52.0,28.0,-100.00,SE,137,7.0,9.0,39,-99.99,,,-99.99,,2013-04-29 11:52:00,
2013-04-29 05:01:00,52.0,28.0,-100.00,SE,137,7.0,9.0,39,-99.99,,,-99.99,,2013-04-29 12:01:00,
2013-04-29 05:31:00,52.0,27.0,-100.00,SE,129,7.0,9.0,38,-99.99,,,-99.99,,2013-04-29 12:31:00,
2013-04-29 05:41:00,52.0,27.0,-100.00,SE,129,7.0,9.0,38,-99.99,,,-99.99,,2013-04-29 12:41:00,
2013-04-29 05:51:00,52.0,27.0,-100.00,SE,134,7.0,9.0,38,-99.99,,,-99.99,,2013-04-29 12:51:00,
2013-04-29 06:01:00,51.0,26.0,-100.00,SE,132,7.0,9.0,38,-99.99,,,-99.99,,2013-04-29 13:01:00,
2013-04-29 06:11:00,51.0,26.0,-100.00,SE,132,7.0,9.0,38,-99.99,,,-99.99,,2013-04-29 13:11:00,
2013-04-29 06:21:00,51.0,26.0,-100.00,SE,132,7.0,9.0,38,-99.99,,,-99.99,,2013-04-29 13:21:00,
2013-04-29 06:31:00,53.0,27.0,-100.00,SE,129,7.0,9.0,36,-99.99,,,-99.99,,2013-04-29 13:31:00,
2013-04-29 06:42:00,52.0,27.0,-100.00,SE,124,7.0,8.0,38,-99.99,,,-99.99,,2013-04-29 13:42:00,
2013-04-29 06:52:00,53.0,27.0,-100.00,ESE,114,7.0,9.0,37,-99.99,,,-99.99,,2013-04-29 13:52:00,
2013-04-29 07:01:00,53.0,27.0,-100.00,ESE,114,7.0,9.0,37,-99.99,,,-99.99,,2013-04-29 14:01:00,
2013-04-29 07:11:00,54.0,28.0,-100.00,ESE,112,6.0,7.0,36,-99.99,,,-99.99,,2013-04-29 14:11:00,
2013-04-29 07:21:00,54.0,28.0,-100.00,ESE,112,6.0,7.0,36,-99.99,,,-99.99,,2013-04-29 14:21:00,
2013-04-29 07:32:00,55.0,28.0,-100.00,ESE,113,6.0,7.0,35,-99.99,,,-99.99,,2013-04-29 14:32:00,
2013-04-29 07:40:00,60.0,32.0,-100.00,ESE,109,5.0,5.0,35,-99.99,,,-99.99,,2013-04-29 14:40:00,
2013-04-29 07:42:00,55.0,28.0,-100.00,ESE,113,6.0,7.0,35,-99.99,,,-99.99,,2013-04-29 14:42:00,
2013-04-29 07:51:00,55.0,28.0,-100.00,ESE,114,6.0,7.0,35,-99.99,,,-99.99,,2013-04-29 14:51:00,
2013-04-29 08:01:00,55.0,28.0,-100.00,ESE,114,6.0,7.0,35,-99.99,,,-99.99,,2013-04-29 15:01:00,
2013-04-29 08:12:00,60.0,32.0,-100.00,ESE,109,5.0,5.0,35,-99.99,,,-99.99,,2013-04-29 15:12:00,
2013-04-29 08:21:00,60.0,32.0,-100.00,ESE,109,5.0,5.0,35,-99.99,,,-99.99,,2013-04-29 15:21:00,
2013-04-29 08:33:00,60.0,32.0,-100.00,ESE,109,5.0,5.0,35,-99.99,,,-99.99,,2013-04-29 15:33:00,
2013-04-29 09:02:00,70.0,36.0,-100.00,SE,124,2.0,4.0,29,-99.99,,,-99.99,,2013-04-29 16:02:00,
2013-04-29 09:10:00,73.0,32.0,-100.00,WNW,287,4.0,6.0,22,-99.99,,,-99.99,,2013-04-29 16:10:00,
2013-04-29 09:12:00,72.0,27.0,-100.00,SSE,148,1.0,3.0,19,-99.99,,,-99.99,,2013-04-29 16:12:00,
2013-04-29 09:23:00,73.0,30.0,-100.00,West,268,2.0,5.0,20,-99.99,,,-99.99,,2013-04-29 16:23:00,
2013-04-29 09:32:00,73.0,30.0,-100.00,West,268,2.0,5.0,20,-99.99,,,-99.99,,2013-04-29 16:32:00,
2013-04-29 09:42:00,73.0,32.0,-100.00,WNW,287,4.0,6.0,22,-99.99,,,-99.99,,2013-04-29 16:42:00,
2013-04-29 09:52:00,73.0,32.0,-100.00,WNW,287,4.0,6.0,22,-99.99,,,-99.99,,2013-04-29 16:52:00,
2013-04-29 10:02:00,73.0,32.0,-100.00,WNW,287,4.0,6.0,22,-99.99,,,-99.99,,2013-04-29 17:02:00,
2013-04-29 11:40:00,74.0,40.0,-100.00,WNW,285,9.0,12.0,29,-99.99,,,-99.99,,2013-04-29 18:40:00,
2013-04-29 12:11:00,74.0,40.0,-100.00,WNW,285,9.0,12.0,29,-99.99,,,-99.99,,2013-04-29 19:11:00,
2013-04-29 12:21:00,74.0,40.0,-100.00,WNW,285,9.0,12.0,29,-99.99,,,-99.99,,2013-04-29 19:21:00,
2013-04-29 12:31:00,74.0,40.0,-100.00,WNW,285,9.0,12.0,29,-99.99,,,-99.99,,2013-04-29 19:31:00,
2013-04-29 14:21:00,76.0,39.0,-100.00,WNW,283,9.0,13.0,26,-99.99,,,-99.99,,2013-04-29 21:21:00,
2013-04-29 14:33:00,76.0,39.0,-100.00,WNW,285,10.0,14.0,26,-99.99,,,-99.99,,2013-04-29 21:33:00,
2013-04-29 14:42:00,76.0,39.0,-100.00,WNW,285,10.0,14.0,26,-99.99,,,-99.99,,2013-04-29 21:42:00,
2013-04-29 14:53:00,76.0,38.0,-100.00,WNW,303,10.0,16.0,25,-99.99,,,-99.99,,2013-04-29 21:53:00,
2013-04-29 15:02:00,76.0,37.0,-100.00,WNW,301,10.0,15.0,24,-99.99,,,-99.99,,2013-04-29 22:02:00,
2013-04-29 15:13:00,76.0,37.0,-100.00,WNW,303,10.0,15.0,24,-99.99,,,-99.99,,2013-04-29 22:13:00,
2013-04-29 15:23:00,77.0,37.0,-100.00,WNW,301,9.0,13.0,24,-99.99,,,-99.99,,2013-04-29 22:23:00,
2013-04-29 15:32:00,76.0,36.0,-100.00,WNW,303,9.0,14.0,23,-99.99,,,-99.99,,2013-04-29 22:32:00,
2013-04-29 15:42:00,76.0,37.0,-100.00,NW,307,10.0,14.0,24,-99.99,,,-99.99,,2013-04-29 22:42:00,
2013-04-29 15:50:00,77.0,36.0,-100.00,WNW,292,9.0,13.0,23,-99.99,,,-99.99,,2013-04-29 22:50:00,
2013-04-29 15:52:00,76.0,38.0,-100.00,NW,309,9.0,16.0,25,-99.99,,,-99.99,,2013-04-29 22:52:00,
2013-04-29 16:02:00,76.0,38.0,-100.00,NW,309,9.0,16.0,25,-99.99,,,-99.99,,2013-04-29 23:02:00,
2013-04-29 16:11:00,76.0,37.0,-100.00,WNW,294,9.0,13.0,24,-99.99,,,-99.99,,2013-04-29 23:11:00,
2013-04-29 16:22:00,77.0,36.0,-100.00,WNW,292,9.0,13.0,23,-99.99,,,-99.99,,2013-04-29 23:22:00,
2013-04-29 16:30:00,76.0,43.0,-100.00,WNW,297,10.0,13.0,31,-99.99,,,-99.99,,2013-04-29 23:30:00,
2013-04-29 16:32:00,77.0,36.0,-100.00,WNW,292,9.0,13.0,23,-99.99,,,-99.99,,2013-04-29 23:32:00,
2013-04-29 16:42:00,77.0,36.0,-100.00,WNW,292,9.0,13.0,23,-99.99,,,-99.99,,2013-04-29 23:42:00,
2013-04-29 17:01:00,76.0,43.0,-100.00,WNW,297,10.0,13.0,31,-99.99,,,-99.99,,2013-04-30 00:01:00,
2013-04-29 17:11:00,76.0,43.0,-100.00,WNW,297,10.0,13.0,31,-99.99,,,-99.99,,2013-04-30 00:11:00,
2013-04-29 17:21:00,76.0,43.0,-100.00,WNW,297,10.0,13.0,31,-99.99,,,-99.99,,2013-04-30 00:21:00,
2013-04-29 18:20:00,73.0,44.0,-100.00,WNW,290,4.0,6.0,36,-99.99,,,-99.99,,2013-04-30 01:20:00,
2013-04-29 18:52:00,73.0,44.0,-100.00,WNW,290,4.0,6.0,36,-99.99,,,-99.99,,2013-04-30 01:52:00,
2013-04-29 19:01:00,73.0,44.0,-100.00,WNW,290,4.0,6.0,36,-99.99,,,-99.99,,2013-04-30 02:01:00,
2013-04-29 19:11:00,73.0,44.0,-100.00,WNW,290,4.0,6.0,36,-99.99,,,-99.99,,2013-04-30 02:11:00,
2013-04-29 22:50:00,55.0,37.0,-100.00,SE,142,7.0,11.0,50,-99.99,,,-99.99,,2013-04-30 05:50:00,
2013-04-29 23:01:00,55.0,38.0,-100.00,SSE,150,5.0,7.0,52,-99.99,,,-99.99,,2013-04-30 06:01:00,
2013-04-29 23:11:00,55.0,38.0,-100.00,SSE,150,5.0,7.0,52,-99.99,,,-99.99,,2013-04-30 06:11:00,
2013-04-29 23:21:00,55.0,37.0,-100.00,SE,142,7.0,11.0,50,-99.99,,,-99.99,,2013-04-30 06:21:00,
2013-04-29 23:30:00,53.0,36.0,-100.00,SE,134,6.0,9.0,52,-99.99,,,-99.99,,2013-04-30 06:30:00,
2013-04-29 23:31:00,55.0,37.0,-100.00,SE,142,7.0,11.0,50,-99.99,,,-99.99,,2013-04-30 06:31:00,
2013-04-29 23:41:00,55.0,37.0,-100.00,SE,142,7.0,11.0,50,-99.99,,,-99.99,,2013-04-30 06:41:00,